RH
62 58 56 53 50 47 45 43 42 40 37 33 32 32 32 33 33 35 36 38 39 39 40 42 44 48 52 55 56 56 58 59 59 56 53 50 47 50 56 56 54 53 51 49 48 47 46 42 40 53 78 98 108 110 106 102 102 104 106 103 101 101 103 104 104 103 103 102 101 102 101 96 97 102 103 104 106 106 104 105 108 106 105 106 105 104 100
55 53 50 48 46 43 41 39 37 35 33 30 27 26 25 26 26 26 28 30 32 34 36 39 40 43 46 49 53 56 58 60 59 56 54 52 51 51 54 56 56 59 60 57 54 49 49 52 48 41 45 61 85 103 108 104 102 102 103 102 101 102 102 102 102 102 102 100 97 98 101 99 99 101 102 105 110 109 104 104 106 105 102 102 103 103 102
50 48 46 45 43 40 37 35 33 31 30 28 26 23 21 21 21 22 22 23 25 27 29 32 35 39 41 45 49 52 54 56 55 54 52 53 53 52 52 53 56 62 65 64 61 55 48 50 57 54 45 42 51 66 82 95 103 105 104 101 100 102 101 101 102 101 101 101 99 100 102 102 103 102 99 98 102 106 106 105 106 105 103 103 104 103 104
47 46 45 44 42 40 36 33 31 30 28 27 25 22 20 19 19 19 20 20 21 22 23 26 28 31 35 37 42 45 49 52 52 51 52 54 54 51 48 49 53 58 64 66 65 62 54 49 54 61 58 49 45 45 48 60 76 91 100 103 104 102 100 100 101 101 102 102 101 100 100 100 102 102 100 96 94 97 101 105 107 106 102 102 103 102 102
48 47 46 45 43 41 37 34 32 30 28 26 24 21 19 18 17 17 17 18 18 19 20 22 23 26 29 32 37 41 45 50 52 52 54 56 57 54 48 47 51 55 60 64 66 66 61 52 51 59 64 58 51 48 45 44 48 57 69 80 92 101 104 103 101 100 100 101 102 103 102 102 102 100 100 100 98 97 98 99 100 100 101 103 102 102 103
49 48 47 45 44 42 39 37 34 32 29 26 24 21 18 17 16 15 15 16 16 16 17 19 21 23 25 28 33 37 41 45 48 49 51 54 57 58 53 49 51 55 59 63 65 67 67 60 51 53 62 64 58 53 51 49 47 46 49 53 60 71 84 93 99 103 103 101 102 102 100 100 101 100 100 101 100 100 102 100 95 91 92 95 96 99 101
49 47 47 47 46 46 44 41 39 37 33 27 23 20 18 16 15 14 15 15 15 15 15 17 19 20 22 25 28 32 37 41 43 45 48 51 54 56 56 53 53 56 60 64 66 67 67 65 58 52 56 62 63 59 55 54 53 49 47 49 49 49 54 62 72 85 94 100 105 104 98 94 92 91 93 95 93 92 94 96 93 88 86 86 87 91 91
49 49 50 51 50 50 48 45 42 40 37 31 25 21 17 16 15 15 16 16 16 16 16 16 17 18 20 23 24 27 30 34 38 40 43 47 49 53 55 54 54 55 58 61 64 65 65 65 62 56 54 59 64 66 62 58 58 55 50 49 51 50 49 49 50 53 60 71 84 93 97 96 91 86 85 88 89 85 81 81 82 85 88 87 86 87 85
52 54 55 54 53 51 49 47 44 41 38 32 27 22 18 16 17 18 18 18 18 18 18 16 16 17 19 21 23 25 27 29 32 35 38 42 44 47 50 51 51 52 54 56 58 58 60 63 63 58 56 56 59 68 71 65 61 61 58 53 50 49 50 49 47 44 42 45 51 58 65 70 70 68 68 70 75 78 79 77 74 75 80 82 82 84 83
58 58 57 55 53 51 50 48 46 44 41 36 30 25 21 19 19 20 21 21 20 20 19 18 18 17 18 19 21 24 26 29 31 33 36 39 42 45 47 48 49 49 49 50 51 52 53 56 60 58 56 53 53 62 76 79 71 64 61 61 57 52 49 46 42 40 39 40 42 43 46 48 48 49 49 49 49 53 57 59 57 54 53 54 56 59 62
60 58 56 54 52 51 49 49 47 45 43 41 35 29 24 21 21 22 23 23 22 22 21 19 19 18 18 18 20 22 25 28 32 34 37 39 41 43 45 46 46 46 46 45 45 46 47 48 53 55 55 54 51 54 66 81 85 77 68 65 63 59 54 48 44 43 41 39 40 42 42 44 45 46 48 49 47 46 46 47 48 47 46 46 46 46 47
59 56 54 53 52 51 50 49 47 45 43 42 40 35 29 25 24 25 26 25 24 24 23 21 20 19 18 18 19 21 23 27 32 38 42 44 44 45 45 45 44 43 42 42 40 41 42 43 47 51 52 53 52 51 56 68 84 92 86 76 71 69 65 58 52 51 49 46 45 44 42 44 46 45 46 46 45 43 43 42 43 45 47 48 48 46 44
57 56 55 54 53 52 50 49 47 46 45 43 43 41 36 30 26 26 27 27 27 26 25 25 24 22 20 19 19 20 22 25 29 35 41 45 48 50 49 48 46 43 41 40 39 39 39 41 43 47 51 53 52 51 52 58 74 94 104 101 92 83 78 73 68 64 61 58 55 52 51 52 52 51 51 53 53 51 50 50 49 50 50 49 46 43 40
60 59 57 56 55 54 52 50 48 46 45 44 43 43 41 37 32 29 28 28 29 29 28 27 27 26 24 22 20 20 21 24 27 30 34 38 42 45 47 46 45 43 41 40 40 40 40 41 42 45 48 50 51 51 52 54 63 80 98 108 107 99 90 85 81 76 73 68 61 56 54 55 60 63 65 67 69 67 64 61 59 58 57 55 52 50 50
63 62 60 58 57 55 54 52 49 47 46 45 44 43 43 41 39 35 31 29 29 29 30 29 28 28 27 26 24 22 21 22 25 28 31 34 36 38 40 42 41 40 39 39 39 40 41 42 44 46 46 47 49 51 51 52 56 66 80 95 105 107 103 97 92 86 81 77 70 62 59 63 70 75 74 74 78 78 76 74 70 64 62 64 67 70 69
65 63 61 59 57 55 54 53 52 50 48 46 45 44 44 43 43 40 37 34 32 30 30 30 30 30 29 29 28 26 24 23 24 27 30 32 34 35 35 36 37 37 37 38 38 39 40 42 43 45 47 46 47 49 50 51 53 59 71 88 101 108 109 107 105 101 96 94 87 76 70 70 74 77 76 79 85 88 86 84 79 75 77 82 86 87 83
67 66 64 61 58 57 55 54 53 52 51 49 47 46 45 44 44 43 42 41 39 35 32 30 30 30 30 30 30 28 27 26 25 26 28 30 33 35 34 33 33 33 35 36 37 39 40 41 43 44 46 46 45 46 47 50 52 54 62 76 91 102 107 109 109 106 103 104 103 96 90 88 88 89 91 94 97 98 97 94 91 93 98 99 94 90 84
72 70 67 64 62 61 59 57 56 54 53 52 50 48 47 45 45 44 44 44 43 42 39 35 32 31 31 31 31 31 30 29 28 28 28 29 31 33 34 34 31 30 32 33 35 37 39 40 41 43 45 46 46 45 44 45 47 50 54 63 75 87 96 102 106 107 104 104 104 103 102 102 103 103 102 102 102 101 101 102 104 106 109 109 104 99 95
76 74 70 67 65 63 62 61 60 58 57 56 54 52 50 48 48 47 45 45 44 44 44 42 39 36 33 32 31 31 31 30 30 29 28 29 30 31 33 34 33 32 31 31 33 34 36 38 40 41 42 44 45 46 45 44 44 45 48 53 60 69 78 85 93 102 105 105 105 102 101 101 102 102 102 102 101 99 98 99 101 102 104 105 104 102 100
79 77 74 71 68 66 65 63 62 61 60 60 59 58 56 54 52 51 49 48 46 46 47 46 44 42 39 38 36 33 31 30 30 30 30 30 30 31 32 33 34 34 33 32 33 33 34 36 38 40 42 42 44 45 46 46 45 44 45 46 49 54 61 66 72 80 88 96 102 104 104 104 103 102 102 102 101 100 99 98 97 97 97 98 98 98 98
81 80 79 76 74 71 69 66 63 61 62 63 63 63 62 60 58 56 55 53 51 50 49 48 48 47 44 43 42 40 37 34 31 30 30 30 30 31 31 31 32 33 34 34 34 34 35 35 36 37 39 40 42 44 45 46 47 47 47 47 46 47 51 54 56 59 64 71 79 85 92 99 103 105 106 106 104 103 103 104 104 104 102 100 100 100 100
82 82 81 79 77 76 73 70 67 65 64 64 65 66 66 66 65 62 60 58 57 56 54 52 50 49 47 45 44 43 42 40 37 34 31 30 29 30 30 31 31 31 31 32 33 33 34 35 36 36 37 37 38 40 41 43 46 47 48 48 48 47 48 49 50 51 53 54 56 58 64 71 79 85 90 93 95 97 100 101 102 103 102 102 104 105 104
81 83 81 78 77 78 77 74 71 69 69 68 67 67 67 68 68 67 65 63 62 60 58 56 53 51 49 48 46 44 43 42 42 41 38 35 32 30 29 29 29 29 30 30 30 31 31 32 33 34 35 36 38 38 39 40 41 43 45 46 47 47 48 48 49 49 50 50 50 50 50 52 55 59 63 67 71 74 78 81 83 84 86 89 92 95 97
79 80 78 76 76 77 78 77 74 73 72 72 72 70 68 67 68 69 69 68 66 66 64 63 61 59 56 53 51 50 48 46 43 43 43 42 39 36 33 31 28 27 27 28 29 29 30 30 31 31 31 32 34 35 37 39 39 40 41 42 42 43 44 46 47 48 48 49 49 50 50 50 49 50 51 53 54 56 59 63 66 68 70 72 74 77 80
77 76 74 72 72 75 78 79 78 77 75 76 77 75 73 72 72 72 73 71 69 70 70 68 67 66 64 60 57 54 53 51 47 44 43 44 44 42 40 38 35 31 28 26 26 27 28 28 29 30 30 30 29 30 31 33 35 37 38 38 39 39 40 41 42 43 45 46 47 49 50 51 51 51 51 52 53 54 56 58 59 60 62 63 65 67 69
77 75 73 71 71 74 78 81 82 81 79 80 82 81 79 79 78 77 77 75 72 71 71 71 69 68 67 66 64 60 57 55 52 48 45 43 43 42 42 42 41 39 35 31 28 27 26 26 26 26 28 28 29 30 30 29 29 30 30 31 32 33 34 36 37 38 40 41 43 44 45 47 48 49 50 51 52 53 55 56 56 57 58 58 59 59 60
78 78 78 76 74 75 79 82 84 85 83 82 83 85 83 82 83 83 83 82 79 76 75 75 74 71 69 69 68 66 65 62 58 55 52 48 44 42 42 42 42 43 42 39 36 32 29 27 26 25 25 25 26 27 28 29 29 29 29 28 28 28 28 29 30 31 33 34 36 38 40 42 42 43 43 44 44 45 46 46 47 48 48 49 49 49 49
78 80 81 80 78 78 80 82 85 88 87 84 83 86 86 84 85 89 89 88 85 84 81 79 76 75 74 74 72 70 70 68 65 61 57 53 49 44 42 41 41 41 43 43 43 40 36 32 29 27 25 25 25 25 25 25 26 28 29 29 30 30 30 30 29 29 28 29 29 30 31 31 31 32 33 33 34 35 36 37 38 38 38 38 37 37 37
77 79 81 84 84 82 81 84 88 91 91 88 85 85 86 86 85 87 91 91 89 88 87 84 80 77 77 77 76 74 72 70 68 64 61 57 54 50 46 44 42 40 40 42 43 43 42 39 36 33 30 28 27 26 25 25 24 24 25 27 28 30 31 32 32 31 30 29 28 27 27 26 26 26 26 26 27 27 27 28 28 28 28 28 27 27 26
78 77 82 88 91 87 84 86 91 94 95 93 90 86 85 85 84 84 88 91 92 91 91 89 85 80 77 77 77 76 74 72 70 67 64 60 57 54 50 47 44 42 41 41 41 41 41 41 41 40 38 35 33 29 27 25 25 25 25 26 26 26 27 28 28 29 30 30 30 30 30 29 29 28 27 27 26 26 26 26 26 25 25 25 25 24 24
79 79 84 93 98 94 88 87 92 97 98 96 94 91 87 85 83 83 85 88 90 90 91 91 91 86 80 78 78 77 76 76 74 73 71 66 62 58 54 50 48 45 42 41 40 39 39 39 40 41 41 41 39 36 32 29 28 27 26 25 25 25 25 26 26 27 27 28 28 29 29 29 29 29 29 29 29 29 28 27 26 26 26 25 25 24 24
81 82 88 97 102 100 94 90 92 95 96 94 93 93 91 88 86 84 84 85 87 88 89 92 96 94 87 81 78 76 75 74 73 73 74 72 68 65 61 58 54 50 46 43 41 39 38 37 37 38 40 42 42 40 38 35 33 31 29 27 26 25 25 25 25 25 25 25 26 26 27 27 27 28 28 29 29 28 28 28 27 27 27 26 25 25 23
81 82 88 94 96 96 93 88 86 87 87 88 89 91 93 93 90 85 83 84 86 86 87 90 97 100 95 87 82 80 78 75 71 68 69 70 70 69 66 62 58 53 50 47 44 42 40 37 35 34 35 38 40 42 41 40 38 37 35 32 31 29 27 26 25 24 24 24 24 23 23 23 24 24 24 25 25 25 25 25 25 25 25 25 25 24 23
78 81 87 89 88 88 87 85 84 84 84 87 92 96 100 101 96 88 83 83 84 84 83 87 95 102 101 94 88 85 83 81 75 68 64 65 67 68 68 66 61 55 50 47 45 44 41 38 34 32 32 33 35 38 42 43 43 42 40 38 37 36 33 31 30 28 27 26 25 24 23 22 22 22 22 22 22 21 21 21 20 20 20 20 20 20 19
79 85 92 90 86 85 86 88 88 88 89 96 103 104 105 106 102 92 84 82 82 81 79 83 93 102 103 98 91 88 88 87 82 74 66 62 61 62 65 67 65 59 53 49 46 44 41 39 37 34 31 30 31 33 37 41 43 44 43 41 40 40 39 37 35 34 34 33 31 30 29 28 27 26 25 24 23 22 21 20 19 18 18 17 16 16 16
81 89 97 96 90 87 87 90 91 91 95 104 108 104 102 103 101 94 87 83 82 80 77 80 90 99 102 99 93 90 90 91 88 81 72 64 60 58 59 62 63 60 55 51 49 46 43 42 42 39 34 32 30 30 32 35 38 40 40 40 41 41 40 39 38 38 37 35 33 33 33 32 31 30 28 27 26 24 23 21 20 18 18 16 15 15 14
81 89 97 98 92 89 89 90 90 92 99 106 106 102 100 99 96 93 90 86 83 80 77 80 88 95 98 97 94 90 89 90 89 84 76 67 60 57 55 56 57 54 51 50 50 48 47 46 46 44 39 36 33 31 30 30 32 34 36 37 39 39 39 40 40 40 38 36 34 33 34 34 33 32 30 29 27 25 23 22 20 19 17 15 14 13 13
82 88 95 95 91 90 91 93 96 100 104 107 105 102 99 95 93 93 93 89 85 80 78 82 90 95 97 96 94 91 89 87 86 84 78 68 60 56 54 53 53 51 48 47 48 49 49 48 48 47 44 41 39 36 33 30 30 30 32 34 36 37 37 38 40 40 39 38 37 36 36 36 35 33 32 30 28 26 25 24 22 20 18 15 13 12 12
87 89 91 91 89 89 91 95 102 107 106 105 105 102 96 93 93 95 93 88 83 80 80 86 94 99 100 98 95 93 89 85 82 81 78 70 62 56 54 52 51 50 49 47 46 48 49 48 47 46 45 43 42 40 36 33 31 30 29 30 32 33 35 36 37 39 39 40 39 39 38 38 37 35 34 32 31 30 29 26 24 21 18 15 13 12 12
92 91 90 89 88 88 90 96 102 104 103 104 104 99 95 95 96 94 91 87 84 83 84 88 94 101 103 101 97 95 92 85 79 76 75 71 65 59 56 54 52 51 51 49 47 47 48 49 48 46 44 41 40 38 36 34 33 31 30 29 29 29 31 32 33 35 36 37 38 38 39 39 38 38 37 35 34 33 31 28 26 23 19 15 13 12 12
94 94 91 87 87 91 95 98 101 102 102 103 102 98 97 97 95 93 92 90 87 86 88 90 95 101 105 103 101 100 96 87 78 74 72 70 64 59 57 57 56 55 55 54 50 49 48 48 47 45 42 39 38 36 34 33 32 31 31 31 29 29 28 28 28 30 31 33 34 36 38 39 40 40 39 37 36 35 33 31 28 24 19 16 14 12 12
95 93 91 90 93 97 97 97 97 97 97 96 97 97 98 95 92 93 95 92 87 88 90 91 94 101 104 102 100 101 99 91 82 75 72 68 63 58 55 56 58 59 58 56 53 52 50 47 45 43 41 39 38 37 35 33 32 31 30 30 30 30 28 26 26 27 28 28 30 32 34 36 38 39 39 38 37 36 36 34 32 27 21 17 14 13 13
91 90 90 90 92 90 86 85 87 89 89 91 93 94 94 92 91 95 98 93 87 88 91 92 94 101 104 102 100 102 100 94 85 78 73 69 64 58 55 55 59 61 61 58 55 54 53 50 46 44 42 41 41 40 39 37 35 33 32 30 29 29 28 26 26 25 25 25 27 29 31 33 35 37 38 38 38 38 38 37 34 29 23 18 15 14 14
87 88 86 83 80 78 78 81 84 86 87 90 92 93 94 94 96 98 97 91 87 88 90 93 96 102 106 104 102 103 103 97 89 83 79 73 66 59 55 56 59 61 61 58 56 55 53 51 48 46 45 43 43 43 43 43 41 38 36 33 31 29 28 26 25 25 25 25 25 27 28 30 32 35 37 37 38 39 40 39 36 31 25 19 16 15 15
88 87 81 76 76 80 84 86 89 91 93 95 97 98 100 102 103 102 96 90 86 87 91 95 98 102 104 103 101 101 101 97 91 86 83 79 72 63 57 56 59 61 61 58 56 54 53 51 49 48 46 44 43 43 44 45 45 43 40 39 37 33 30 27 25 25 25 25 26 26 26 27 29 32 34 36 38 39 40 39 37 34 28 22 17 16 16
92 86 78 75 79 86 91 92 94 97 100 103 106 108 108 108 108 104 96 88 86 88 92 96 100 102 102 101 100 98 96 93 88 83 81 79 75 68 60 56 58 61 62 61 58 56 54 52 51 49 45 42 42 42 42 42 43 43 42 41 40 38 33 29 26 24 24 24 25 26 26 26 28 30 32 34 37 38 39 39 39 36 30 24 19 17 17
90 83 79 79 84 92 97 100 100 99 100 104 110 113 112 110 107 102 95 88 88 90 93 96 100 102 102 100 99 95 91 87 83 77 73 73 72 68 62 57 57 59 61 61 58 56 55 53 50 48 44 39 38 41 42 42 42 42 40 40 40 40 37 32 27 25 23 23 24 26 26 26 27 29 31 33 35 36 38 40 40 37 32 26 22 18 17
86 82 81 84 90 96 101 102 101 100 101 104 109 113 113 109 104 99 94 92 92 95 97 100 103 105 103 101 98 93 86 82 78 72 67 65 66 63 59 56 54 57 61 62 59 56 55 53 49 46 41 37 35 37 41 43 43 41 39 37 37 39 38 35 30 26 24 23 23 25 26 26 27 28 29 31 33 35 38 40 41 38 33 28 24 20 18
87 85 86 88 92 97 101 102 101 100 102 105 109 112 113 107 100 96 95 95 95 97 99 102 105 105 104 102 99 94 87 82 76 69 64 61 59 58 56 53 50 52 57 61 60 56 55 54 51 46 41 36 33 34 38 42 44 43 40 36 34 36 37 37 33 29 25 23 23 24 24 25 26 27 28 30 32 34 37 39 40 38 35 31 26 23 19
91 89 90 90 89 92 98 102 101 100 101 104 108 112 110 102 96 95 97 96 95 97 100 102 103 103 102 100 98 94 89 83 74 66 60 56 54 53 54 53 50 49 51 56 58 57 55 54 52 47 41 36 33 32 34 37 40 41 39 36 33 32 34 36 36 33 29 25 23 23 23 24 25 26 28 30 32 35 37 39 39 38 36 33 28 25 22
94 92 92 88 85 90 97 101 102 103 102 101 105 108 103 95 91 94 96 95 93 96 100 102 102 101 100 98 94 91 89 84 74 63 55 51 49 49 51 53 52 50 49 50 53 55 55 54 52 47 41 35 32 31 32 35 38 40 41 38 33 30 30 32 34 36 34 30 27 25 24 24 25 26 28 30 31 33 36 38 39 38 37 34 30 27 24
98 94 91 85 84 89 96 99 102 104 102 99 101 102 97 90 88 91 91 90 90 93 95 96 97 98 97 93 87 83 82 80 73 62 51 44 43 44 46 49 52 52 49 48 50 53 55 56 53 47 41 37 33 30 31 35 38 41 43 41 37 31 27 27 29 33 35 35 32 29 27 26 26 26 27 29 31 32 34 37 39 39 38 35 31 28 25
Wind_Speed
48 50 51 53 54 55 55 56 57 57 57 55 54 53 52 52 54 56 56 58 59 59 57 56 55 55 56 58 57 56 55 55 55 54 51 49 47 46 47 46 44 43 42 42 42 43 44 45 46 49 51 52 52 53 53 53 51 51 51 50 49 51 52 54 56 55 54 54 52 52 52 51 51 51 50 50 51 51 52 53 54 54 54 54 53 51 50
50 52 53 55 56 56 55 54 54 54 54 53 51 49 48 48 50 53 53 56 59 60 60 59 59 59 59 60 59 59 58 58 58 56 53 51 50 50 49 48 46 45 44 43 43 44 44 45 46 47 49 52 54 56 55 55 54 53 54 52 51 52 55 57 58 57 56 55 53 52 53 54 54 53 52 53 54 54 55 56 57 56 55 55 54 53 53
51 52 53 53 53 53 51 49 49 48 47 47 46 45 43 42 44 46 48 50 55 57 59 60 61 62 62 63 63 62 61 61 61 59 56 54 54 54 52 50 48 47 47 46 45 45 45 46 47 48 48 49 52 55 57 57 57 56 56 55 54 56 57 58 58 58 57 57 56 55 56 57 57 57 56 56 56 56 57 59 59 57 56 55 55 55 55
49 48 48 47 47 47 46 44 43 43 42 41 41 40 39 38 39 41 42 45 49 52 54 57 59 61 63 64 64 63 62 62 62 61 58 57 58 57 54 52 50 50 49 49 48 47 47 47 48 49 49 49 50 51 54 56 58 59 59 58 58 58 59 59 59 60 59 58 58 58 57 57 58 58 58 58 58 58 59 60 60 59 58 56 56 57 58
43 42 41 41 41 42 41 40 39 39 38 37 36 36 35 35 35 36 37 40 44 45 47 51 54 57 60 61 62 63 63 64 65 64 62 61 60 60 57 54 52 51 51 51 50 49 49 49 50 50 51 51 50 50 50 52 54 57 59 60 61 61 62 61 60 61 61 60 60 59 59 59 59 58 58 58 59 59 59 60 61 60 59 58 57 58 58
37 36 35 35 36 36 37 36 35 35 35 33 32 32 32 31 32 33 34 36 39 40 42 45 49 52 55 58 60 62 64 66 67 66 65 63 63 62 60 56 54 53 53 53 52 52 51 51 52 52 52 52 52 51 51 50 51 53 55 57 60 62 64 64 63 63 63 62 62 63 62 62 61 60 60 60 60 60 60 60 61 60 60 59 59 59 59
31 31 30 30 31 32 33 33 32 33 33 32 30 29 29 29 29 30 30 32 35 36 38 41 45 48 50 54 57 60 62 65 66 66 66 65 64 64 62 59 57 56 55 55 54 54 54 54 54 54 54 54 54 53 53 52 52 52 52 54 57 58 61 64 65 66 66 65 65 66 67 66 65 64 63 63 63 63 62 63 63 62 62 62 62 62 62
27 26 26 27 28 29 30 30 30 29 30 29 28 27 25 25 25 26 27 28 30 32 34 37 40 42 45 49 53 56 59 62 64 65 65 66 65 65 65 63 60 59 58 57 57 56 56 55 56 56 56 56 55 55 55 54 54 54 53 54 55 56 58 61 62 65 67 68 68 69 69 69 69 68 67 66 66 66 66 66 66 65 66 66 66 66 67
22 23 24 25 26 27 27 28 28 27 27 26 25 25 24 22 21 22 23 24 25 27 30 33 35 38 41 44 47 50 53 56 58 60 62 63 64 65 65 64 63 62 60 59 59 58 57 57 57 58 58 58 57 57 56 56 56 55 55 56 56 56 58 59 60 62 63 65 68 69 70 71 71 70 69 68 67 68 68 69 69 69 69 70 70 71 71
21 22 23 24 25 25 25 26 26 26 26 24 23 22 22 21 19 19 19 21 22 23 25 28 30 33 36 39 41 44 46 49 52 55 57 59 61 62 63 64 63 63 62 61 61 60 59 59 59 59 59 59 59 58 58 58 58 57 57 57 58 58 59 60 59 59 59 59 61 63 64 65 66 65 65 66 66 65 66 68 70 70 70 70 71 71 71
19 20 21 22 23 24 25 25 25 24 24 23 22 20 19 19 18 16 16 18 19 20 21 23 26 29 31 34 37 39 41 42 45 48 51 54 57 58 60 61 62 62 62 62 62 62 61 60 60 60 60 60 60 60 60 60 59 59 59 58 59 59 60 60 60 59 59 57 57 58 57 57 57 58 58 59 59 59 59 61 63 64 65 64 64 64 64
18 19 20 21 22 23 24 25 25 25 24 23 23 21 19 18 16 15 15 15 16 17 18 20 22 25 27 29 32 34 36 38 40 42 46 50 53 55 56 57 59 60 61 61 61 61 61 61 61 61 61 61 61 62 61 61 60 60 59 59 59 59 60 61 61 60 60 59 58 57 55 54 55 55 55 55 55 55 55 56 56 57 57 57 57 57 57
17 18 20 21 22 23 24 25 25 26 25 24 23 21 19 17 16 14 13 13 14 15 16 17 19 21 23 25 27 30 32 34 37 41 44 47 50 53 55 56 57 58 58 59 60 60 61 61 61 61 62 62 63 63 62 61 61 61 60 60 61 61 61 62 62 61 61 61 60 58 56 56 57 56 55 55 56 55 56 56 56 55 55 55 56 56 56
16 18 19 21 22 23 24 25 25 26 26 25 24 22 21 19 17 15 13 12 12 13 13 14 16 18 21 23 25 26 28 31 34 38 41 45 49 52 54 55 56 57 57 58 58 59 60 61 61 62 63 63 63 63 63 63 62 62 63 63 63 63 63 63 64 63 63 63 62 60 58 57 57 57 57 57 58 58 58 59 59 58 58 57 57 58 58
16 18 20 21 22 24 25 26 26 26 26 26 25 24 22 20 19 16 14 12 11 11 12 12 14 16 18 21 23 24 26 28 31 34 38 42 45 49 51 54 55 56 56 56 57 57 58 59 60 62 63 63 63 64 65 64 63 63 63 64 65 65 65 66 66 66 65 65 64 63 60 59 58 59 60 59 60 61 61 62 61 60 59 59 59 60 61
16 18 20 22 23 24 25 26 27 27 27 26 26 25 23 22 20 18 16 14 12 11 10 11 12 13 15 18 20 23 24 26 28 31 35 38 42 45 48 51 53 54 54 55 55 56 57 58 59 60 62 63 63 64 65 64 64 63 63 64 65 66 67 68 68 68 67 67 67 66 64 62 62 62 62 62 63 64 65 65 63 61 62 63 63 64 65
16 18 20 22 24 25 26 27 27 27 27 27 26 25 24 23 21 20 18 16 14 12 11 10 10 11 13 15 17 20 22 24 25 28 32 36 39 43 46 49 51 52 53 53 54 55 56 57 57 58 60 62 63 64 65 65 65 65 64 65 66 67 68 69 70 70 69 69 69 69 67 65 65 65 65 65 66 67 67 66 64 64 66 68 68 68 68
17 19 21 23 24 25 26 27 28 28 28 28 27 26 24 23 22 21 19 18 16 15 13 11 10 10 11 12 14 16 19 21 23 26 29 32 36 40 44 47 49 49 50 51 52 53 54 56 56 57 59 60 62 63 64 65 65 65 66 67 67 68 69 70 71 71 71 71 71 71 69 68 68 68 68 69 69 70 69 67 67 69 71 71 71 71 71
18 20 22 24 25 26 27 28 29 29 29 29 28 27 26 25 24 22 21 19 18 16 15 14 12 11 10 11 12 14 16 19 21 23 26 29 32 35 39 43 46 48 49 50 51 52 53 54 55 56 57 58 60 62 63 64 64 65 66 67 68 70 71 71 71 72 72 73 73 73 72 71 71 71 72 72 73 72 71 70 71 72 73 74 74 74 73
18 20 22 24 26 27 27 28 29 30 30 30 29 29 28 26 25 24 23 21 19 18 16 16 15 13 12 11 11 13 15 16 18 21 23 25 28 31 35 38 42 45 47 49 50 51 52 53 54 55 56 57 58 60 61 63 64 64 65 67 68 70 71 72 72 72 73 74 74 74 73 73 73 74 74 75 75 75 74 74 74 74 75 75 75 75 75
18 20 23 24 26 27 28 29 30 30 30 30 29 29 29 28 27 25 24 23 21 20 18 17 16 16 14 12 12 12 14 15 17 18 21 23 25 27 30 33 36 39 43 46 48 50 51 52 53 54 56 56 57 58 59 60 62 63 65 66 67 68 70 72 73 73 74 74 75 75 75 75 75 76 76 77 77 77 77 77 77 77 77 77 77 78 78
19 21 22 24 26 27 28 29 30 31 31 30 30 30 30 29 28 27 26 25 23 22 20 19 17 16 16 15 13 13 13 14 16 17 19 21 23 25 27 29 32 34 37 40 43 46 49 51 52 54 55 55 56 57 58 58 60 61 63 65 67 68 69 71 72 73 74 74 75 75 75 75 76 77 77 78 78 79 79 79 79 79 79 79 79 80 80
19 20 22 24 25 26 28 29 30 31 31 31 31 31 30 30 29 29 28 27 25 24 22 21 20 18 17 17 16 15 14 14 15 16 18 19 21 22 24 26 28 31 33 35 37 40 43 46 48 51 53 54 55 57 57 58 59 60 62 63 65 66 68 69 71 72 73 74 75 75 75 75 75 76 77 78 79 79 79 80 80 80 80 80 80 81 81
19 20 22 24 25 26 27 29 30 31 31 32 32 32 32 31 31 31 31 30 29 27 26 24 23 22 20 19 18 17 17 17 16 17 18 19 21 21 22 24 26 27 29 32 34 36 38 40 43 45 48 50 52 54 56 57 59 60 61 62 64 65 65 67 69 70 71 72 73 74 75 75 76 76 76 77 78 78 79 79 80 80 80 80 80 80 81
19 20 22 24 25 26 27 28 29 31 31 32 32 33 33 33 33 33 33 32 31 30 28 26 25 23 22 21 19 18 18 18 18 18 18 19 20 21 22 23 24 25 26 28 30 32 34 37 39 40 42 44 46 48 51 54 56 58 60 61 62 63 64 65 66 67 68 70 71 72 73 74 75 75 76 76 77 77 78 78 79 79 79 79 80 80 80
19 21 22 24 25 26 27 28 29 30 31 31 32 32 33 34 34 34 34 34 33 32 31 29 28 26 24 23 22 20 20 19 19 19 19 19 20 21 22 22 23 24 25 26 27 28 30 33 35 37 39 41 42 44 46 48 50 52 55 57 58 60 61 62 64 65 66 68 69 70 71 72 73 74 75 75 76 76 77 78 79 79 79 79 79 80 80
19 21 23 25 26 26 27 28 28 29 30 30 31 31 32 33 34 35 35 35 35 35 34 32 31 29 27 26 24 23 22 21 21 20 20 20 20 21 22 22 22 23 24 25 26 26 27 29 31 33 35 37 39 41 43 45 46 47 49 50 52 53 55 57 58 60 62 63 65 66 68 69 71 72 73 73 74 75 75 76 77 78 78 79 79 79 80
20 23 25 26 27 27 28 28 28 29 29 29 30 31 32 33 34 34 35 36 36 36 36 35 33 32 31 29 27 25 24 22 22 21 21 21 20 21 21 22 23 23 23 24 25 26 26 27 28 29 31 33 35 38 40 42 43 44 45 46 47 48 49 51 53 54 56 58 59 61 62 64 65 66 67 68 69 70 71 72 73 74 75 75 75 76 76
22 24 26 27 28 29 28 28 28 28 28 29 29 30 31 33 33 34 35 35 36 37 38 37 36 34 33 31 30 28 26 24 22 21 21 21 21 21 21 21 22 23 23 23 24 25 26 26 27 28 28 30 32 34 36 38 40 41 42 43 44 45 46 48 49 50 52 53 54 55 55 56 58 59 60 62 63 64 65 66 67 68 69 69 69 69 69
23 25 27 28 29 29 29 29 29 29 28 29 29 30 31 32 33 34 34 35 36 37 38 39 38 37 35 34 32 30 28 26 25 23 22 22 22 21 21 21 21 22 22 23 24 25 25 26 26 27 28 29 30 32 33 34 35 36 38 40 42 43 44 45 46 47 48 49 50 51 52 52 53 54 55 56 57 57 58 59 60 61 62 62 62 62 62
24 26 28 28 29 30 30 30 29 29 29 29 30 31 32 33 34 35 35 35 36 37 38 40 40 40 38 36 34 32 31 29 27 26 24 23 23 23 23 22 22 22 22 22 23 24 25 26 26 27 27 29 30 31 32 32 32 33 35 36 38 39 41 42 43 44 45 46 47 48 49 50 51 51 52 53 53 54 55 56 56 57 57 57 58 58 58
25 27 27 27 28 29 30 30 30 29 29 30 31 32 34 35 36 36 36 36 36 37 38 40 41 42 41 39 37 35 33 31 29 27 25 24 23 23 23 23 23 23 23 22 23 24 25 26 27 27 28 29 30 31 31 31 31 32 33 34 34 35 37 38 39 40 41 42 43 45 46 47 47 48 49 50 51 52 53 53 54 55 55 55 56 56 56
26 27 27 27 27 29 30 30 29 29 29 30 32 33 35 36 37 37 37 37 37 38 38 40 42 43 43 41 40 38 36 34 31 29 27 25 24 23 23 24 23 23 23 23 23 24 25 25 26 26 27 29 30 31 32 32 32 33 33 33 33 34 35 35 36 37 37 39 40 41 42 42 43 44 45 46 47 48 49 49 50 51 52 53 54 54 54
27 28 28 28 28 28 29 29 29 29 30 31 32 34 35 37 38 39 39 38 38 38 39 40 42 44 44 43 42 40 39 38 35 32 29 27 25 24 23 24 24 24 23 23 23 24 25 25 25 25 26 27 29 30 31 32 33 34 34 33 33 33 34 34 35 35 35 36 37 37 38 39 39 40 41 42 43 44 44 45 46 47 47 48 49 50 50
28 29 29 29 29 29 29 30 30 30 31 32 33 35 36 37 38 39 40 39 39 39 39 39 41 43 44 44 43 42 41 40 38 36 33 31 28 25 24 23 24 24 24 24 24 25 25 25 25 25 25 26 26 27 29 31 33 34 34 34 34 34 34 35 34 34 35 35 36 36 36 37 37 38 39 39 40 40 41 42 42 43 44 45 45 46 46
29 29 29 29 30 30 30 30 31 31 32 33 34 36 37 38 39 39 40 40 40 40 39 39 41 43 44 44 43 42 42 42 40 38 35 33 31 28 25 24 24 24 24 24 25 25 25 25 26 26 26 25 25 25 27 29 32 33 33 34 34 34 34 35 34 35 35 35 35 35 35 35 36 36 37 37 37 38 39 39 40 40 41 42 42 43 43
29 29 29 29 30 31 31 32 32 33 33 34 36 37 38 39 39 40 41 41 41 41 41 40 41 42 43 44 43 43 42 42 41 39 36 34 32 30 27 25 24 24 24 24 24 25 25 25 25 26 26 26 25 26 27 28 29 31 32 33 33 34 34 34 34 35 35 35 34 34 34 34 35 35 35 35 36 36 36 37 37 38 38 39 39 39 40
30 29 29 29 30 31 32 33 33 34 35 37 38 39 40 40 40 40 41 42 42 42 41 41 42 43 43 44 44 43 43 42 41 39 37 35 32 30 28 26 25 25 24 23 23 24 24 25 25 25 26 26 26 27 27 28 28 29 31 32 32 33 33 34 34 35 35 35 35 34 34 34 35 35 34 34 34 34 34 35 35 36 36 37 37 37 37
30 30 29 29 30 32 33 34 35 36 37 38 40 40 41 41 41 41 41 42 42 42 42 42 43 44 45 45 45 44 44 43 41 39 37 35 33 31 29 27 26 25 24 24 23 23 24 25 25 25 26 26 26 27 27 28 28 29 30 30 31 32 33 33 34 35 35 36 35 35 35 35 35 34 34 33 33 33 33 33 33 34 35 35 35 35 35
31 30 30 30 31 33 35 35 36 37 38 40 41 41 41 41 42 42 42 42 42 42 42 43 43 45 46 46 46 46 45 44 42 39 37 35 33 31 29 28 27 25 25 25 25 24 24 25 26 26 26 26 26 26 27 27 27 28 29 30 30 31 32 33 33 33 34 35 35 35 35 35 35 34 34 33 32 32 32 32 32 33 33 33 34 33 33
31 31 31 31 33 35 37 38 38 38 39 40 41 41 41 41 42 42 43 43 43 44 44 44 44 45 47 47 47 47 46 45 43 41 38 35 33 30 29 27 27 26 26 27 27 26 26 26 26 27 27 27 27 27 27 26 26 27 28 29 29 30 31 32 32 32 33 33 34 34 34 34 34 34 33 32 31 31 31 31 31 32 32 32 32 32 31
31 31 32 33 35 37 38 39 39 39 40 40 40 41 41 42 43 43 44 44 44 45 45 45 45 46 48 48 47 47 47 46 45 42 39 37 34 31 29 27 27 27 28 28 28 28 28 28 27 27 27 27 26 26 26 26 26 26 26 27 28 29 30 30 31 31 32 32 32 33 33 34 34 33 33 32 31 30 30 30 30 31 31 31 31 30 29
31 32 33 35 36 38 39 39 39 40 40 40 41 42 43 44 44 45 45 46 46 46 46 47 47 48 49 49 48 48 48 47 46 44 41 38 35 33 30 29 28 28 29 29 29 29 30 29 28 27 27 26 25 25 25 25 25 26 26 26 27 28 29 30 29 30 30 31 31 31 32 33 33 33 32 31 30 29 29 29 30 30 30 30 29 28 27
32 34 35 36 37 38 39 39 39 40 40 41 42 43 44 45 46 47 47 47 46 46 47 48 48 49 50 50 49 49 49 48 47 46 44 42 38 34 32 30 29 29 29 30 29 30 30 30 29 28 27 26 25 25 25 25 25 25 26 26 27 28 29 29 29 29 29 30 30 30 31 32 32 32 31 31 30 29 29 29 29 29 30 30 29 27 26
34 35 35 36 37 38 39 39 40 41 42 43 44 45 46 47 48 49 49 48 47 46 47 48 49 49 50 50 50 49 49 48 47 46 46 44 41 38 34 32 31 31 31 30 30 30 30 30 29 28 27 26 25 25 25 25 26 26 25 25 26 28 29 29 29 29 29 29 29 30 31 31 31 31 31 30 29 29 28 28 28 28 29 29 28 27 25
35 35 36 36 37 38 40 41 42 43 44 44 45 46 48 49 50 51 51 49 48 47 48 49 49 50 50 51 50 50 49 48 47 46 45 44 43 40 37 34 32 32 32 31 31 30 30 30 29 29 28 27 25 25 25 25 26 26 25 25 25 26 28 29 29 29 29 29 29 29 30 30 31 31 30 30 29 28 28 27 27 27 28 28 27 26 25
36 36 37 38 39 40 42 43 44 45 46 46 47 48 50 51 51 52 52 51 50 49 49 50 50 51 52 52 51 50 49 48 47 45 44 43 42 41 38 35 33 33 33 32 31 31 30 30 29 29 29 28 26 25 25 25 26 26 26 25 24 25 27 28 28 29 29 28 28 28 29 30 30 30 30 29 29 28 27 26 26 26 27 27 27 26 24
37 37 38 39 41 42 44 46 47 47 48 48 49 50 51 52 53 53 53 52 51 51 51 51 52 53 53 53 53 52 50 49 48 46 44 43 42 40 38 35 33 32 33 33 32 31 31 31 30 30 30 29 27 25 24 25 26 26 27 27 25 24 25 27 27 28 28 28 27 28 28 29 29 29 29 29 28 27 26 26 26 26 26 26 26 25 24
40 39 40 42 43 45 47 49 50 50 50 50 51 52 53 54 55 55 54 53 52 52 52 52 53 53 54 54 53 53 52 51 49 48 45 43 41 40 38 35 33 31 31 32 32 31 30 31 31 31 31 30 28 26 24 24 25 26 27 28 27 26 25 26 26 27 28 28 27 27 28 28 28 28 28 28 28 27 27 26 25 25 25 25 25 25 24
43 42 43 44 45 47 50 52 54 54 53 52 52 53 55 56 56 56 55 54 53 52 53 54 54 55 54 54 54 53 53 52 51 49 46 44 42 40 38 36 34 32 31 31 32 31 31 30 31 32 31 31 30 28 25 24 24 25 26 27 27 27 26 26 25 26 27 27 27 27 28 28 28 28 28 28 27 27 27 26 25 25 24 24 24 24 24
46 46 46 48 48 50 52 55 56 57 56 54 54 55 56 56 56 56 56 55 54 53 54 54 55 55 55 55 54 53 53 53 52 50 46 43 41 39 37 36 35 34 33 32 31 32 32 31 31 32 32 31 31 29 27 26 25 25 26 27 28 28 27 26 26 25 26 26 27 27 28 28 28 28 28 28 27 27 26 26 25 25 24 24 23 23 24
49 49 50 51 51 52 55 56 57 57 58 57 57 57 58 57 57 56 55 55 54 54 54 54 55 55 56 55 54 53 52 52 52 51 47 43 40 38 36 35 35 35 35 33 32 32 32 32 33 33 32 32 32 31 29 27 26 25 26 27 28 28 28 27 26 26 26 26 26 27 27 28 28 28 28 28 27 27 26 25 25 25 24 24 23 23 23
Wind_Direction
289 289 289 288 288 287 287 286 285 284 283 280 277 275 272 269 265 262 259 258 257 256 254 253 251 250 250 250 252 252 253 253 253 253 252 252 252 251 250 250 249 249 248 247 246 245 244 244 243 241 240 240 241 242 243 244 244 244 245 244 244 244 245 246 247 248 248 248 248 250 251 251 251 251 252 253 254 255 256 257 257 257 258 260 260 261 261
290 290 289 289 289 288 288 287 286 286 285 283 281 278 274 270 266 263 259 256 255 253 252 250 249 248 247 248 249 249 249 250 251 251 250 250 250 249 248 248 248 248 248 247 246 244 243 243 243 242 240 239 240 240 242 243 244 244 245 245 245 245 246 247 248 249 249 250 250 251 253 254 253 252 251 252 253 253 254 255 256 256 257 258 259 261 261
291 291 291 290 290 290 290 290 289 288 287 286 284 281 277 272 267 264 260 256 253 252 250 248 246 245 244 244 244 245 246 247 249 249 249 248 248 247 246 246 246 245 246 246 245 244 243 242 242 242 241 240 240 240 240 241 242 243 244 244 244 245 246 247 249 250 250 251 251 250 251 253 254 254 252 251 251 252 253 254 255 256 257 257 259 260 260
292 292 292 293 293 293 294 294 293 292 290 289 286 284 280 276 271 266 261 257 253 251 249 248 246 245 244 243 243 243 244 245 247 248 248 247 248 248 246 245 245 244 245 245 245 245 244 242 242 241 241 240 240 240 241 240 241 242 243 243 244 245 246 247 248 250 250 250 250 250 250 251 252 254 254 254 252 251 252 253 255 256 256 256 257 258 259
294 294 295 296 297 297 298 299 298 297 295 292 290 287 283 279 274 269 263 259 255 252 249 248 246 245 244 244 243 243 242 243 245 246 246 246 247 248 247 245 244 244 245 245 245 245 245 243 242 241 241 240 239 240 241 241 241 242 242 243 243 244 245 246 247 249 250 250 250 250 250 250 250 251 252 254 254 253 253 253 253 254 255 255 255 256 257
296 297 299 300 301 302 303 304 304 303 300 298 295 292 287 282 277 271 266 261 258 254 250 247 246 244 243 242 241 241 241 241 242 243 244 244 245 247 247 246 245 244 245 245 245 245 244 244 243 242 241 240 239 239 239 240 241 241 242 243 243 242 243 244 245 246 248 249 250 249 248 248 248 249 249 251 252 253 254 254 254 253 254 255 255 255 256
299 301 304 306 308 311 312 312 312 311 308 305 301 297 293 287 281 274 269 263 260 256 252 248 246 245 243 241 240 239 239 239 241 242 243 243 244 245 246 246 245 244 244 245 245 244 244 244 243 243 242 241 240 239 239 239 240 241 241 242 243 243 243 243 243 243 245 246 248 249 249 249 248 248 249 250 251 252 253 254 255 255 255 255 255 256 256
304 309 313 316 317 318 318 318 318 317 314 311 308 304 299 293 286 279 272 267 262 258 254 250 247 245 244 242 242 240 239 239 240 240 241 242 243 244 245 246 245 245 244 244 244 244 244 244 243 243 242 242 241 241 240 239 240 241 241 241 242 243 244 243 243 242 243 244 246 248 249 249 249 249 250 250 252 253 254 255 255 256 257 258 258 258 258
316 321 323 323 322 323 323 324 324 324 322 319 316 312 308 301 293 284 277 271 266 260 256 253 250 246 244 243 243 243 242 241 241 241 241 242 242 243 244 245 245 245 244 244 244 244 244 243 243 243 242 242 241 241 241 241 240 241 241 241 242 243 244 245 245 245 244 244 245 247 249 251 252 253 253 253 254 255 257 258 258 257 257 258 258 259 260
327 328 328 327 327 328 329 330 331 332 332 330 326 322 318 312 302 292 283 276 270 264 259 255 252 249 246 243 242 242 242 242 242 241 242 242 243 243 244 245 245 245 245 244 244 243 243 243 243 243 243 242 242 241 241 241 242 242 242 243 243 244 245 246 248 249 249 248 248 249 250 252 254 256 257 257 257 257 258 259 260 261 260 260 259 260 260
331 331 332 333 334 335 336 336 337 338 339 339 336 332 328 323 314 303 292 283 277 270 264 260 255 252 249 245 242 241 241 240 241 242 242 242 242 243 244 245 245 246 246 245 245 244 243 243 243 243 243 243 243 242 241 241 242 243 243 244 246 247 248 249 250 251 252 252 251 251 252 253 255 256 256 257 258 258 258 259 260 261 263 263 263 262 260
335 337 338 339 340 341 342 342 343 343 344 346 345 343 340 336 328 316 303 292 285 278 272 267 261 257 253 249 245 242 240 238 237 237 239 241 242 243 244 245 246 246 246 246 246 245 245 244 243 243 243 243 243 243 242 242 242 243 244 245 247 248 250 252 253 253 254 254 253 253 254 254 255 255 255 256 257 257 258 258 259 260 261 262 262 261 260
341 342 343 344 345 346 345 346 347 347 348 349 350 350 348 345 340 332 319 305 295 286 279 273 268 264 260 255 249 244 240 237 234 232 233 235 237 239 241 243 244 245 246 246 246 246 245 244 244 243 243 243 243 243 243 243 242 242 243 245 246 247 249 251 252 253 254 254 254 254 254 254 255 256 257 258 258 258 258 258 259 259 260 260 260 260 260
347 347 347 348 348 348 348 348 349 349 350 350 351 353 353 351 349 345 336 323 309 297 287 278 272 267 264 261 256 250 243 238 236 234 233 233 234 235 236 238 240 242 243 244 245 245 245 245 244 244 243 242 243 243 243 243 242 242 242 243 245 246 247 249 250 251 252 253 254 254 254 254 256 257 258 258 259 259 259 259 259 260 260 261 262 262 261
353 352 350 350 350 350 350 349 349 350 351 351 351 353 354 354 353 351 347 340 328 312 297 286 276 270 266 263 260 257 250 243 239 237 237 237 236 236 236 238 239 241 242 243 243 243 244 244 244 245 245 244 243 243 244 243 243 243 243 244 245 246 248 249 250 251 252 253 254 254 254 254 254 255 256 257 258 259 260 260 260 261 262 263 263 263 262
357 354 352 352 351 351 351 351 351 351 351 352 352 353 353 354 354 353 351 349 342 330 313 297 285 275 269 265 262 260 257 251 245 240 239 239 240 239 238 238 239 241 243 244 245 245 244 244 244 244 245 245 244 243 244 244 244 244 244 244 245 246 247 249 250 251 253 254 255 256 255 255 254 255 256 257 257 258 259 260 261 262 263 262 262 262 262
358 356 354 354 353 353 353 353 353 353 352 353 353 353 353 353 353 353 352 351 348 341 329 313 297 284 276 270 266 262 260 257 252 246 242 241 241 242 242 242 241 241 242 243 245 245 245 245 245 245 246 246 246 245 244 244 244 244 244 244 245 245 246 248 249 251 252 253 255 256 257 257 257 257 257 257 257 258 259 261 262 263 262 262 261 262 262
358 357 355 355 355 355 355 356 356 355 355 354 354 354 354 353 353 353 352 351 349 345 338 329 314 298 286 277 271 266 263 260 256 252 248 244 242 242 243 245 245 244 243 244 245 245 246 246 246 245 245 246 247 247 246 245 244 244 244 245 245 246 246 246 248 249 251 252 254 255 256 257 258 258 258 259 259 259 259 260 261 261 261 262 263 263 264
359 357 356 356 356 357 358 358 358 358 357 356 356 356 355 355 354 353 351 349 347 346 342 336 327 315 302 289 278 271 266 263 260 257 253 250 248 246 245 246 247 247 247 247 246 247 247 247 247 247 246 246 247 248 249 248 247 245 244 244 245 247 247 247 247 248 250 251 252 254 254 255 256 257 258 259 260 260 260 260 260 260 261 262 263 264 265
358 357 357 356 357 358 360 0 1 1 0 359 359 359 358 357 356 355 353 350 347 345 343 339 333 326 316 305 293 282 274 268 264 261 259 256 253 251 249 248 248 248 249 249 249 249 249 249 248 248 248 247 247 248 249 250 250 249 247 246 246 247 248 249 249 249 249 250 251 252 253 254 255 256 257 258 259 260 261 261 262 262 263 264 264 265 266
358 357 357 357 358 359 0 1 1 2 2 2 2 1 1 360 359 358 356 353 349 346 342 338 334 329 323 314 304 294 285 277 271 266 262 260 258 256 254 252 251 250 250 250 251 250 250 251 250 250 250 249 249 249 249 249 250 251 251 250 249 249 249 250 251 251 251 251 251 251 252 252 253 254 255 257 258 259 260 261 262 263 264 264 265 266 266
356 356 357 358 359 359 0 1 1 1 2 2 3 4 4 3 2 1 359 357 354 349 344 339 333 329 325 320 313 303 294 286 279 272 267 263 261 259 258 256 255 254 253 252 252 252 252 252 252 252 252 252 251 251 250 250 250 250 250 251 251 251 251 251 252 252 253 254 254 254 253 253 253 254 255 256 257 258 259 260 261 262 262 263 264 265 266
355 355 356 357 358 359 360 0 0 1 1 1 2 3 4 4 4 3 2 1 358 354 349 343 337 331 327 323 319 313 306 297 289 282 276 270 265 262 260 259 258 257 256 255 254 254 254 253 253 253 253 253 253 253 253 252 252 251 251 251 251 251 251 252 253 253 254 255 256 256 256 256 256 256 256 257 257 258 259 259 260 261 261 262 262 263 264
354 355 355 356 357 358 358 359 360 360 360 360 0 1 2 3 5 5 4 4 2 360 356 350 344 337 331 326 322 318 314 308 301 293 286 279 274 269 266 264 261 259 257 257 256 256 255 255 255 255 254 254 254 254 254 254 254 253 253 253 252 252 252 252 252 253 254 254 255 257 258 258 258 258 258 258 259 259 260 260 260 261 261 262 262 262 263
354 354 355 355 355 356 357 358 358 359 359 358 358 359 360 1 3 4 4 4 4 3 0 356 350 344 337 330 324 318 313 309 304 299 293 286 280 275 271 269 267 264 262 259 258 257 257 256 256 256 256 256 255 255 255 255 255 255 255 255 255 255 254 254 254 254 255 255 255 256 257 258 258 259 259 260 260 261 261 261 262 262 262 262 262 262 262
353 354 354 354 354 355 355 355 357 357 357 357 357 357 358 360 1 3 3 3 3 3 2 359 355 349 344 338 330 323 316 311 307 304 300 294 288 282 277 272 269 268 267 264 261 259 259 258 258 257 257 257 257 257 256 256 255 255 256 256 256 257 257 257 257 257 257 257 257 257 258 258 259 260 260 260 260 261 261 261 262 262 262 262 262 262 262
352 352 352 352 352 352 352 353 354 355 356 356 355 355 356 358 360 1 2 2 1 2 2 0 358 354 350 345 339 331 323 315 309 306 303 299 295 290 285 280 275 272 270 268 266 264 262 261 260 260 259 259 258 258 258 258 257 257 257 257 258 259 259 259 259 259 259 259 259 259 259 259 259 260 260 260 260 261 261 261 262 262 262 262 263 263 263
349 350 350 350 350 350 350 350 351 353 353 353 353 353 354 356 358 360 1 1 0 360 360 359 358 356 354 350 344 338 331 321 313 307 303 300 297 294 291 287 283 278 275 272 270 268 266 264 263 262 261 260 259 259 259 259 259 259 259 259 259 260 260 261 261 260 260 260 260 260 260 260 261 261 261 262 262 263 263 263 263 264 264 264 264 264 264
345 347 347 347 347 348 348 348 349 350 350 350 349 350 351 352 354 357 359 359 359 358 358 357 357 356 356 353 348 343 336 329 320 312 305 302 300 298 295 291 289 285 282 279 275 272 269 267 266 265 263 262 261 260 260 260 260 261 261 261 261 260 260 260 260 261 261 262 262 263 263 263 263 263 264 264 264 264 265 265 265 266 266 266 267 267 267
342 344 345 346 345 345 346 346 346 347 347 347 346 346 347 347 349 352 355 356 357 356 356 356 356 355 355 354 351 347 342 336 330 322 313 306 302 300 297 294 292 289 287 286 283 280 276 273 270 267 266 265 264 263 262 261 262 262 261 261 261 261 261 261 262 262 263 263 264 265 265 265 265 266 266 266 267 267 267 268 268 268 268 269 269 269 269
341 343 344 344 344 343 343 344 344 344 344 344 344 344 344 344 345 347 350 352 353 353 354 355 355 354 353 353 352 350 346 341 336 330 322 313 307 303 300 298 296 293 291 288 286 285 283 280 277 273 270 268 266 265 265 264 263 263 262 261 262 262 262 262 262 263 263 263 264 264 265 265 266 267 268 268 269 269 270 270 270 271 271 271 271 271 271
340 342 343 342 342 341 341 342 343 343 342 342 342 342 342 342 343 344 345 347 348 350 352 353 353 352 352 351 350 350 348 344 339 334 327 320 312 306 302 299 298 296 294 291 289 287 286 284 282 279 276 273 271 270 269 268 267 265 264 264 264 263 263 263 263 263 264 264 264 264 264 265 266 266 267 268 268 269 270 270 271 272 272 273 273 273 273
337 339 340 340 340 340 341 342 343 343 343 343 342 342 341 341 342 342 343 344 345 346 348 351 352 350 350 350 349 349 348 344 341 337 332 325 318 311 304 300 297 295 294 292 291 290 288 287 285 284 281 278 276 274 273 272 271 269 268 267 267 266 266 266 265 265 266 266 266 266 266 266 267 267 267 268 268 269 269 270 270 271 271 271 272 272 272
336 337 337 337 338 340 341 342 344 344 344 343 342 341 341 341 341 341 341 341 342 343 345 348 349 349 348 348 348 348 348 345 342 338 334 329 323 316 309 304 299 296 294 293 292 291 290 290 289 288 285 282 279 277 275 274 273 273 272 271 270 270 269 269 269 269 269 269 269 269 270 270 270 270 271 271 271 272 272 272 272 272 272 272 272 272 272
335 335 335 335 337 339 341 342 342 342 343 342 341 339 339 339 339 339 339 339 340 340 342 345 347 347 346 346 346 347 347 345 343 339 335 331 326 320 314 308 303 299 297 296 295 294 293 294 294 293 290 287 283 280 276 274 273 273 273 273 272 271 271 271 271 271 271 271 271 272 272 273 273 273 273 274 275 275 275 275 275 275 275 275 275 274 274
332 333 333 333 335 338 340 340 340 340 340 340 338 337 337 336 337 337 337 337 337 337 339 343 345 344 344 344 345 345 346 345 343 340 336 332 328 323 318 312 305 300 298 297 296 296 296 297 297 296 295 293 290 285 280 276 274 273 273 274 273 273 272 272 272 272 272 272 272 272 273 273 274 274 275 275 276 276 277 277 277 277 277 277 276 276 275
328 330 330 331 333 336 337 338 339 338 338 337 336 335 335 335 335 335 335 335 335 336 338 341 342 343 343 344 344 344 344 344 343 340 336 332 328 324 319 314 308 303 301 299 298 298 298 299 298 298 297 297 295 290 285 281 278 276 275 275 275 274 274 274 275 274 274 274 274 275 275 276 276 277 277 277 278 278 279 279 280 280 279 279 278 278 277
324 326 328 329 331 333 335 336 337 336 335 334 334 334 334 333 333 334 334 334 334 335 338 340 342 343 343 343 343 343 342 342 342 339 336 332 328 325 321 317 313 309 306 304 301 300 299 299 298 298 298 298 296 293 289 286 284 281 279 278 278 277 277 277 277 277 278 278 279 279 279 279 279 280 280 281 281 282 283 283 284 284 283 282 282 280 279
322 324 325 327 329 332 333 334 334 333 332 332 333 333 333 332 333 333 333 333 334 336 339 341 343 344 343 343 342 342 341 340 340 339 336 332 329 325 322 319 316 313 310 307 305 303 302 301 300 298 297 296 294 292 291 289 287 285 283 281 280 279 279 279 279 279 280 280 280 281 281 281 282 283 284 285 286 287 287 287 287 287 286 285 284 283 282
321 322 324 326 328 330 332 332 332 330 330 330 331 331 331 332 332 333 333 333 335 337 339 342 343 344 343 342 342 341 340 338 338 338 336 332 329 326 323 320 318 316 313 310 309 307 306 305 303 302 299 297 295 293 291 290 289 287 286 284 282 281 280 279 279 279 279 280 280 281 282 283 284 285 286 287 288 289 289 290 290 289 289 288 287 286 285
320 322 323 325 327 329 330 330 329 328 328 329 330 330 330 331 332 333 333 333 335 336 338 340 342 343 342 341 341 340 339 337 337 336 335 332 328 325 321 319 317 316 314 312 312 311 310 308 306 304 302 301 299 297 295 293 291 289 287 286 285 283 282 281 281 280 280 280 281 282 283 283 285 286 287 288 290 291 292 292 293 292 291 290 289 288 287
320 321 322 324 326 327 327 328 327 327 328 329 330 330 330 331 332 332 332 332 334 335 336 338 340 341 340 339 339 339 337 336 336 335 334 331 327 324 321 318 317 316 314 313 313 313 312 310 308 306 305 305 304 302 300 298 296 294 291 288 286 285 284 283 282 282 281 281 281 282 282 283 284 285 287 289 290 292 294 295 295 294 293 292 291 290 288
319 320 321 323 324 325 327 328 328 328 329 330 330 330 330 330 331 331 330 330 332 333 334 336 338 339 338 338 338 338 336 335 335 334 333 330 327 324 321 319 317 315 314 314 315 315 313 312 311 310 309 308 307 305 304 303 301 298 295 293 290 288 286 285 284 283 282 282 282 282 283 283 284 285 287 289 291 293 295 296 295 295 294 293 292 291 289
317 318 319 322 325 327 328 329 329 330 331 332 331 330 330 330 330 329 328 328 329 331 333 334 336 337 337 336 336 336 335 334 334 334 333 330 327 323 321 318 316 314 313 313 314 314 314 313 312 311 310 309 309 308 307 306 304 301 300 298 295 292 290 288 287 286 285 285 285 284 284 284 285 286 287 289 291 294 295 295 295 295 295 294 293 292 289
314 315 319 323 327 329 330 330 330 331 332 333 332 331 331 330 329 328 326 327 328 330 332 333 335 336 335 334 334 334 333 333 333 333 332 330 327 322 320 318 315 313 313 313 314 314 314 313 313 311 310 310 310 310 309 307 305 304 303 301 299 296 293 291 290 288 287 286 286 285 285 285 286 287 288 290 292 294 294 295 295 296 295 294 293 292 290
310 313 317 323 326 328 329 329 330 331 332 332 332 331 331 330 329 327 326 326 328 330 331 333 334 334 334 333 332 332 331 331 331 331 331 329 326 321 318 317 314 312 312 313 314 314 314 314 312 311 309 309 310 310 308 307 306 305 304 303 301 298 295 293 292 290 288 287 286 286 286 286 287 287 289 290 291 292 293 295 296 296 295 294 293 292 291
306 311 316 321 324 326 327 327 328 329 330 330 330 330 330 329 328 327 326 326 328 329 330 332 333 333 333 332 331 330 329 329 329 329 329 328 324 320 316 314 313 311 310 311 312 313 314 313 312 310 308 308 308 309 308 307 307 305 304 303 302 300 297 295 293 291 290 288 287 286 286 286 286 287 288 289 290 291 293 295 295 295 294 293 293 292 291
304 309 314 318 321 323 323 324 325 326 327 328 328 328 327 327 327 326 326 326 327 328 329 331 332 332 332 331 329 328 328 328 328 327 327 326 323 318 314 311 310 309 309 309 311 312 313 313 312 310 308 308 307 308 307 307 307 306 305 304 304 302 300 297 295 293 291 289 287 286 285 285 285 286 287 288 289 291 293 294 294 294 294 293 292 292 291
304 308 312 315 318 320 320 320 322 323 325 325 325 325 325 325 326 325 325 325 325 326 328 329 330 330 330 329 328 327 327 327 326 326 325 324 321 317 313 310 309 308 307 307 309 311 312 312 312 311 309 308 307 306 306 305 305 305 304 304 304 303 301 299 297 294 291 289 287 285 284 284 285 285 287 288 289 291 292 292 292 293 293 292 292 291 290
303 307 310 312 315 317 318 318 319 321 322 322 323 323 322 323 324 324 323 323 324 325 326 327 328 328 328 327 327 326 325 325 324 324 323 322 320 316 313 310 309 308 307 306 307 309 310 311 311 310 309 307 306 306 305 305 304 303 303 303 303 303 302 301 299 296 293 291 288 286 285 284 285 285 286 287 288 289 290 290 291 291 291 291 291 290 290
302 306 308 310 314 316 316 316 317 318 319 320 321 320 320 322 323 322 321 322 322 324 325 325 326 326 325 325 324 324 324 323 322 322 321 320 318 315 312 310 309 308 307 306 307 308 309 309 309 308 308 307 306 305 305 306 305 305 304 303 303 302 302 301 300 298 295 293 291 288 286 285 285 285 285 286 286 287 288 289 290 290 290 289 289 289 288
301 304 306 309 313 315 315 315 316 316 317 318 319 319 319 321 321 320 320 320 321 322 323 323 324 324 323 322 321 322 322 322 321 320 319 318 316 314 311 309 308 307 306 305 306 306 307 308 308 308 307 306 305 305 305 305 304 304 303 302 302 302 301 300 300 299 298 296 294 291 288 286 285 285 284 284 284 285 286 288 288 289 289 288 287 287 286